Weather History for Truth Or Consequences, NM

Change the Weather History Date:

Thursday, March 7, 2013

  Actual Average Record
Temperature  
Mean Temperature 56 °F -  
Max Temperature 73 °F 64 °F 74 °F (2014)
Min Temperature 39 °F 37 °F 27 °F (2008)
Degree Days  
Heating Degree Days 9    
Month to date heating degree days  
Since 1 July heating degree days  
Cooling Degree Days 0    
Month to date cooling degree days  
Year to date cooling degree days  
Growing Degree Days 6 (Base 50)    
Moisture  
Dew Point 17 °F    
Average Humidity 21    
Maximum Humidity 38    
Minimum Humidity 5    
Precipitation  
Precipitation 0.00 in - 0.06 in (2001)
Month to date precipitation  
Year to date precipitation  
Sea Level Pressure  
Sea Level Pressure 29.83 in    
Wind  
Wind Speed 9 mph (SW)    
Max Wind Speed 23 mph    
Max Gust Speed 30 mph    
Visibility 10 miles    
Events      
T = Trace of Precipitation, MM = Missing Value Source: NWS Daily Summary

Daily Weather History Graph

Daily Weather History Graph

Search for Another Location

Airport:

Trip Planner

Search our weather history database for the weather conditions in past years. The results will help you decide how hot, cold, wet, or windy it might be!

Date:

Astronomy

Mar. 07, 2013 Rise Set
Actual Time 6:29 AM MST 6:11 PM MST
Civil Twilight 6:04 AM MST 6:35 PM MST
Nautical Twilight 5:35 AM MST 7:04 PM MST
Astronomical Twilight 5:07 AM MST 7:33 PM MST
Moon 3:20 AM MST (3/7) 2:12 PM MST (3/7)
Length of Visible Light 12h 31m
Length of Day
11h 41m
Waning Crescent, 19% of the Moon is Illuminated
Mar 7
Waning Crescent
Mar 11
New
Mar 19
First Quarter
Mar 27
Full
Apr 2
Last Quarter

Hourly Weather History & Observations

Time (MST) Temp. Windchill Dew Point Humidity Pressure Visibility Wind Dir Wind Speed Gust Speed Precip Events Conditions
12:53 AM 48.0 °F - 17.1 °F 29% 29.88 in 10.0 mi West 9.2 mph - N/A   Clear
1:53 AM 46.9 °F - 18.0 °F 32% 29.85 in 10.0 mi West 6.9 mph - N/A   Clear
2:53 AM 46.0 °F 41.4 °F 18.0 °F 33% 29.84 in 10.0 mi West 9.2 mph - N/A   Clear
3:53 AM 43.0 °F 38.2 °F 17.1 °F 35% 29.84 in 10.0 mi WNW 8.1 mph - N/A   Clear
4:53 AM 41.0 °F - 17.1 °F 38% 29.85 in 10.0 mi Calm Calm - N/A   Clear
5:53 AM 41.0 °F 35.8 °F 17.1 °F 38% 29.87 in 10.0 mi NW 8.1 mph - N/A   Clear
6:53 AM 43.0 °F 38.8 °F 18.0 °F 37% 29.90 in 10.0 mi NW 6.9 mph - N/A   Clear
7:53 AM 46.9 °F - 19.0 °F 33% 29.93 in 10.0 mi NW 3.5 mph - N/A   Clear
8:53 AM 55.0 °F - 19.9 °F 25% 29.92 in 10.0 mi Calm Calm - N/A   Clear
9:53 AM 59.0 °F - 21.0 °F 23% 29.91 in 10.0 mi Calm Calm - N/A   Clear
10:53 AM 64.9 °F - 21.9 °F 19% 29.89 in 10.0 mi SE 6.9 mph - N/A   Clear
11:53 AM 71.1 °F - 19.0 °F 14% 29.85 in 10.0 mi South 18.4 mph 23.0 mph N/A   Clear
12:53 PM 73.0 °F - 10.0 °F 9% 29.80 in 10.0 mi South 17.3 mph 25.3 mph N/A   Clear
1:53 PM 73.0 °F - 15.1 °F 11% 29.77 in 10.0 mi South 20.7 mph 29.9 mph N/A   Clear
2:53 PM 73.0 °F - 12.0 °F 10% 29.75 in 10.0 mi South 21.9 mph 29.9 mph N/A   Clear
3:53 PM 73.0 °F - 14.0 °F 11% 29.76 in 10.0 mi South 23.0 mph 29.9 mph N/A   Clear
4:53 PM 71.1 °F - 16.0 °F 12% 29.77 in 10.0 mi SSW 19.6 mph 28.8 mph N/A   Clear
5:53 PM 68.0 °F - 14.0 °F 12% 29.78 in 10.0 mi South 18.4 mph 26.5 mph N/A   Clear
6:53 PM 66.0 °F - 16.0 °F 15% 29.79 in 10.0 mi SSW 15.0 mph - N/A   Clear
7:53 PM 64.9 °F - 15.1 °F 15% 29.81 in 10.0 mi SSW 18.4 mph 24.2 mph N/A   Clear
8:53 PM 59.0 °F - 15.1 °F 18% 29.82 in 10.0 mi SW 8.1 mph - N/A   Clear
9:53 PM 55.0 °F - 14.0 °F 20% 29.83 in 10.0 mi SW 3.5 mph - N/A   Clear
10:53 PM 55.0 °F - 15.1 °F 21% 29.82 in 10.0 mi SW 8.1 mph - N/A   Clear
11:53 PM 53.1 °F - 14.0 °F 21% 29.81 in 10.0 mi SSW 6.9 mph - N/A   Clear